Weather History for Johnstown, PA

Change the Weather History Date:

Wednesday, February 6, 2013

  Actual Average Record
Temperature  
Mean Temperature 21 °F 26 °F  
Max Temperature 24 °F 32 °F 64 °F (1938)
Min Temperature 18 °F 19 °F -7 °F (2007)
Degree Days  
Heating Degree Days 44 39  
Month to date heating degree days 239  
Since 1 July heating degree days 4056  
Cooling Degree Days 0 0  
Month to date cooling degree days 0  
Year to date cooling degree days 0  
Moisture  
Dew Point 18 °F    
Average Humidity 80    
Maximum Humidity 92    
Minimum Humidity 63    
Precipitation  
Precipitation 0.01 in 0.09 in 1.00 in (1893)
Month to date precipitation 0.50  
Year to date precipitation 3.38  
Sea Level Pressure  
Sea Level Pressure 30.12 in    
Wind  
Wind Speed 11 mph (West)    
Max Wind Speed 20 mph    
Max Gust Speed 28 mph    
Visibility 5 miles    
Events Snow    
T = Trace of Precipitation, MM = Missing Value Source: NWS Daily Summary

Daily Weather History Graph

Daily Weather History Graph

Search for Another Location

Airport:

Trip Planner

Search our weather history database for the weather conditions in past years. The results will help you decide how hot, cold, wet, or windy it might be!

Date:

Astronomy

Feb. 06, 2013 Rise Set
Actual Time 7:19 AM EST 5:40 PM EST
Civil Twilight 6:50 AM EST 6:08 PM EST
Nautical Twilight 6:18 AM EST 6:40 PM EST
Astronomical Twilight 5:46 AM EST 7:12 PM EST
Moon 4:01 AM EST (2/6) 1:56 PM EST (2/6)
Length of Visible Light 11h 17m
Length of Day
10h 21m
Waning Crescent, 17% of the Moon is Illuminated
Feb 6
Waning Crescent
Feb 10
New
Feb 17
First Quarter
Feb 25
Full
Mar 4
Last Quarter

Hourly Weather History & Observations

Time (EST) Temp. Windchill Dew Point Humidity Pressure Visibility Wind Dir Wind Speed Gust Speed Precip Events Conditions
12:51 AM 24.8 °F 16.9 °F 21.2 °F 86% 29.83 in 2.5 mi WSW 6.9 mph - 0.00 in Snow Light Snow
12:54 AM 24.1 °F 16.0 °F 21.9 °F 91% 29.92 in 2.5 mi West 6.9 mph - 0.00 in Snow Light Snow
1:01 AM 24.8 °F 16.9 °F 21.2 °F 86% 29.83 in 4.0 mi West 6.9 mph - 0.00 in Snow Light Snow
2:54 AM 24.1 °F 11.0 °F 21.0 °F 88% 29.95 in 8.0 mi West 16.1 mph 25.3 mph N/A   Overcast
3:52 AM 23.0 °F 9.6 °F 19.4 °F 86% 29.89 in 7.0 mi WNW 16.1 mph 26.5 mph 0.00 in   Overcast
3:54 AM 23.0 °F 9.2 °F 19.9 °F 88% 29.98 in 7.0 mi West 17.3 mph 26.5 mph 0.00 in   Overcast
4:54 AM 23.0 °F 11.1 °F 19.9 °F 88% 30.00 in 6.0 mi West 12.7 mph - 0.00 in   Overcast
5:54 AM 23.0 °F 8.3 °F 19.9 °F 88% 30.04 in 6.0 mi West 19.6 mph 26.5 mph 0.00 in   Overcast
7:54 AM 23.0 °F 9.2 °F 21.0 °F 92% 30.09 in 3.0 mi West 17.3 mph 27.6 mph 0.00 in   Overcast
8:27 AM 24.8 °F 11.5 °F 19.4 °F 80% 30.01 in 6.0 mi West 17.3 mph 27.6 mph N/A   Overcast
8:47 AM 24.8 °F 11.5 °F 19.4 °F 80% 30.03 in 2.0 mi West 17.3 mph 26.5 mph 0.00 in Snow Light Snow
8:54 AM 24.1 °F 10.6 °F 19.9 °F 84% 30.12 in 1.8 mi West 17.3 mph 24.2 mph 0.00 in Snow Light Snow
9:38 AM 24.8 °F 11.9 °F 19.4 °F 80% 30.05 in 1.0 mi WNW 16.1 mph 27.6 mph 0.00 in Snow Light Snow
9:54 AM 24.1 °F 10.6 °F 19.9 °F 84% 30.15 in 1.5 mi West 17.3 mph 25.3 mph 0.00 in Snow Light Snow
10:08 AM 24.8 °F 13.4 °F 19.4 °F 80% 30.06 in 1.5 mi West 12.7 mph 25.3 mph 0.00 in Snow Light Snow
10:33 AM 24.8 °F 16.1 °F 19.4 °F 80% 30.07 in 3.0 mi West 8.1 mph 20.7 mph 0.00 in Snow Light Snow
10:54 AM 24.1 °F 14.4 °F 19.0 °F 81% 30.18 in 5.0 mi West 9.2 mph 20.7 mph 0.00 in Snow Light Snow
11:33 AM 24.8 °F 14.6 °F 19.4 °F 80% 30.10 in 2.0 mi West 10.4 mph - 0.00 in Snow Light Snow
11:40 AM 24.8 °F 16.9 °F 19.4 °F 80% 30.10 in 1.8 mi West 6.9 mph - 0.00 in Snow Light Snow
11:54 AM 23.0 °F 11.7 °F 19.9 °F 88% 30.20 in 1.0 mi WNW 11.5 mph - 0.00 in Snow Light Snow
12:15 PM 24.8 °F 14.6 °F 19.4 °F 80% 30.11 in 3.0 mi WNW 10.4 mph - 0.01 in Snow Light Snow
12:31 PM 23.0 °F 11.1 °F 17.6 °F 80% 30.11 in 4.0 mi WNW 12.7 mph - 0.01 in Snow Light Snow
12:35 PM 23.0 °F 10.6 °F 17.6 °F 80% 30.11 in 2.5 mi NW 13.8 mph - 0.01 in Snow Light Snow
12:54 PM 21.9 °F 11.7 °F 18.0 °F 85% 30.21 in 2.0 mi NW 9.2 mph - 0.01 in Snow Light Snow
1:09 PM 23.0 °F 10.6 °F 17.6 °F 80% 30.11 in 1.5 mi WNW 13.8 mph - 0.00 in Snow Light Snow
1:16 PM 23.0 °F 11.1 °F 19.4 °F 86% 30.11 in 2.0 mi NW 12.7 mph - 0.00 in Snow Light Snow
1:31 PM 23.0 °F 11.7 °F 17.6 °F 80% 30.11 in 4.0 mi WNW 11.5 mph - 0.00 in Snow Light Snow
1:54 PM 24.1 °F 13.1 °F 17.1 °F 75% 30.21 in 10.0 mi WNW 11.5 mph - 0.00 in   Overcast
2:54 PM 24.1 °F 14.4 °F 17.1 °F 75% 30.22 in 10.0 mi West 9.2 mph - N/A   Overcast
3:54 PM 24.1 °F 13.1 °F 15.1 °F 69% 30.26 in 10.0 mi West 11.5 mph - N/A   Overcast
4:54 PM 24.1 °F 12.0 °F 14.0 °F 65% 30.26 in 10.0 mi West 13.8 mph - N/A   Overcast
5:17 PM 23.0 °F 12.4 °F 12.2 °F 63% 30.17 in 10.0 mi West 10.4 mph - N/A   Scattered Clouds
5:54 PM 21.9 °F 13.4 °F 12.9 °F 68% 30.29 in 10.0 mi West 6.9 mph - N/A   Partly Cloudy
6:54 PM 21.0 °F 13.4 °F 12.9 °F 71% 30.30 in 10.0 mi West 5.8 mph - N/A   Clear
7:54 PM 19.9 °F 14.9 °F 14.0 °F 78% 30.32 in 10.0 mi SW 3.5 mph - N/A   Clear
8:54 PM 19.9 °F 11.1 °F 12.9 °F 74% 30.33 in 10.0 mi SW 6.9 mph - N/A   Clear
9:54 PM 18.0 °F 8.7 °F 12.0 °F 78% 30.34 in 10.0 mi West 6.9 mph - N/A   Clear
10:54 PM 19.9 °F - 14.0 °F 78% 30.33 in 10.0 mi Calm Calm - N/A   Clear
11:54 PM 19.0 °F - 14.0 °F 81% 30.31 in 10.0 mi Calm Calm - N/A   Clear